Location: Unspecified
(49.2170°N, 0.0000°E)
Time: 02:07:51
(UTC+00:00)

Courier 1B - All Passes

Search period start: 25 June 2019 00:00
Search period end: 05 July 2019 00:00
Orbit: 963 x 1209 km, 28.3° (Epoch: 23 June)

Date Brightness Start Highest point End Pass type
(mag) Time Alt. Az. Time Alt. Az. Time Alt. Az.
25 Jun - 17:46:31 10° S 17:48:32 11° SSE 17:50:36 10° SSE daylight
25 Jun - 19:38:04 10° SSW 19:41:09 13° S 19:44:19 10° SSE daylight
26 Jun - 18:44:41 10° SSW 18:47:41 13° S 18:50:45 10° SSE daylight
27 Jun - 17:51:34 10° SSW 17:54:15 12° S 17:56:59 10° SSE daylight
27 Jun - 19:45:09 10° SSW 19:46:52 11° S 19:48:37 10° S daylight
28 Jun - 16:58:49 10° S 17:00:50 11° S 17:02:52 10° SSE daylight
28 Jun - 18:51:09 10° SSW 18:53:25 12° S 18:55:43 10° SSE daylight
29 Jun - 17:57:35 10° SSW 17:59:59 12° S 18:02:26 10° SSE daylight
30 Jun - 17:04:18 10° SSW 17:06:34 12° S 17:08:52 10° SSE daylight
01 Jul - 16:11:20 10° SSW 16:13:11 11° S 16:15:02 10° SSE daylight
02 Jul - 15:19:03 10° S 15:19:48 10° S 15:20:33 10° SSE daylight
02 Jul - 17:10:55 10° SSW 17:12:20 11° S 17:13:45 10° S daylight
03 Jul - 16:17:16 10° SSW 16:18:57 11° S 16:20:37 10° SSE daylight
04 Jul - 15:23:59 10° SSW 15:25:34 11° S 15:27:09 10° SSE daylight
